LKW-1 (43034 NORAD) Tracking and Keplerian Element Data

This shows tracking and keplerian element data for the satellite.

Feedback or suggestion? Click here.




ElementValue
Catalog43034
NameLKW-1
Epoch Orbit21223
Epoch Day270.2268814
Epoch Year2021
RAAN343.4379
Inclination97.3318
Eccentricity0.000732
Argument of Perigee52.922
Mean Anonmoly31.8182
Mean Motion15.23413221
Decay Rate1.749E-05
L11 43034U 17077A 21270.22688140 .00001749 00000-0 76348-4 0 9992
L22 43034 97.3318 343.4379 0007320 52.9220 31.8182 15.23413221212239

Live tracking and technical data element details for LKW-1 (NORAD 43034). LKW-1 can be tracked NOW for your location showing map with azimuth and elevation plus other details from your city location.

Track the satellite on the map from your city or location and see movement details for azimuth, elevation, latitude, longitude, range, height, and movement on the map or in text.







IsCatalogInMostPopularTable: catalog: 43034, numindb: 528
Update: records affected: 1



GetName: 43034 LKW-1

Hit Count: updated at: Tue, 28 Sep 2021 16:53:58 GMT